SCP
0 0 0 0 0 0 0 0 0 0 -0 0 -0 -0 -0 0 0 0 0 0 0 0 0 0 0 0 0 0 0 0 0 0 0 0 0 0 0 0 0 0 0 0 0 0 0 0 0 0 0 0 0 0 0 0
0 0 0 0 0 0 0 0 0 -0 -0 -0 -0 -0 -0 0 0 0 0 0 0 0 0 0 0 0 0 0 0 0 0 0 0 0 0 0 0 0 0 0 0 0 0 0 0 0 0 0 0 0 0 0 0 0
0 0 0 0 0 0 0 0 0 -0 -0 -0 -0 -0 -0 0 0 0 0 0 0 0 0 0 0 0 0 0 0 0 0 0 0 0 0 0 0 0 0 0 0 0 0 0 0 0 0 0 0 0 0 0 0 0
0 0 0 0 0 0 0 -0 0 0 -0 -0 -0 -0 -0 -0 0 0 0 0 0 0 0 0 0 0 0 0 0 0 0 0 0 0 0 0 0 0 0 0 0 0 0 0 0 0 0 0 0 0 0 0 0 0
0 0 0 0 0 0 0 -0 -0 -0 -0 -0 -0 -0 -0 -0 0 0 0 0 0 0 0 0 0 0 0 0 0 0 0 0 0 0 0 0 0 0 0 0 0 0 0 0 0 0 0 0 0 0 0 0 0 0
0 0 0 0 0 -0 0 -0 -0 -0 -0 -0 -0 -0 -0 -0 0 0 0 0 0 0 0 0 0 0 0 0 0 0 0 0 0 0 0 0 0 0 0 0 0 0 0 0 0 0 0 0 0 0 0 0 0 0
0 0 0 0 0 0 0 -0 0 -0 -0 -0 -0 -0 0 0 0 0 0 0 0 0 0 0 0 0 0 0 0 0 0 0 0 0 0 0 0 0 0 0 0 0 0 0 0 0 0 0 0 0 0 0 0 0
0 0 0 0 0 -0 -0 -0 -0 -0 -0 -0 -0 0 0 0 0 0 0 0 0 0 0 0 0 0 0 0 0 0 0 0 0 0 0 0 0 0 0 0 -0 -0 -0 0 0 0 0 0 0 0 0 0 0 0
0 0 0 0 -0 0 0 -0 -0 -0 -0 -0 -0 -0 0 0 0 0 0 0 0 0 0 0 0 0 0 0 0 0 0 0 0 0 0 0 0 0 0 0 0 0 0 0 0 0 0 0 0 0 0 0 0 -0
0 0 0 -0 0 0 0 -0 -0 -0 -0 -0 -0 0 0 0 -0 -0 0 0 0 0 0 0 0 0 0 0 0 0 0 0 0 0 0 0 0 0 0 0 0 0 0 0 0 0 0 0 0 0 0 0 -0 -0
-0 -0 0 0 -0 0 -0 -0 -0 -0 -0 0 -0 0 0 -0 -0 0 0 0 0 0 0 0 0 0 0 0 0 0 0 0 0 0 0 0 0 -0 -0 0 0 0 0 0 0 0 0 0 0 0 -0 -0 -0 -0
-0 -0 0 0 -0 -0 -0 -0 -0 0 -0 -0 -0 0 -0 -0 -0 0 0 0 -0 -0 -0 0 0 0 0 0 0 0 0 0 0 0 0 0 0 0 0 0 0 0 0 0 0 0 0 0 0 -0 -0 -0 -0 -0
-0 -0 -0 -0 -0 -0 -0 -0 -0 -0 -0 -0 0 0 0 0 0 0 0 0 0 0 0 0 0 0 0 0 0 0 0 0 -0 -0 0 0 0 0 0 0 0 0 0 0 0 0 -0 0 0 0 0 0 0 0
-0 -0 -0 -0 -0 -0 -0 -0 -0 -0 -0 0 0 0 0 0 0 0 0 0 0 0 0 -0 0 0 0 0 0 -0 -0 0 0 0 0 -0 0 0 0 0 0 0 0 0 -0 0 0 0 0 0 -0 0 0 0
-0 -0 -0 -0 -0 0 0 -0 -0 0 0 0 0 0 0 -0 0 -0 -0 0 0 0 -0 -0 0 0 0 0 0 0 0 0 0 0 0 0 0 0 0 0 0 0 0 -0 -0 0 0 0 0 -0 -0 0 0 0
-0 -0 0 0 -0 0 0 -0 0 0 0 0 0 0 -0 0 0 0 0 0 -0 0 0 -0 0 0 0 0 0 0 0 -0 0 0 0 0 -0 -0 -0 0 0 0 -0 -0 -0 -0 -0 -0 0 -0 0 0 0 0
-0 0 0 0 0 0 0 0 0 0 0 0 0 0 -0 0 0 0 0 -0 0 0 0 0 0 0 0 0 0 0 0 0 -0 0 0 0 -0 -0 -0 -0 0 0 0 0 -0 -0 -0 -0 -0 0 0 0 0 -0
0 0 0 0 0 0 0 0 -0 0 0 0 0 0 0 -0 0 0 0 0 0 0 0 0 0 0 0 0 0 0 -0 0 0 0 0 -0 0 -0 -0 -0 0 0 0 0 0 -0 -0 -0 -0 -0 -0 -0 -0 -0
0 0 0 0 0 0 0 0 0 0 0 0 0 0 0 -0 -0 0 0 0 -0 0 0 0 0 0 0 0 0 0 -0 -0 -0 -0 -0 -0 -0 -0 -0 -0 0 0 0 0 0 0 -0 -0 -0 -0 -0 -0 -0 -0
0 0 0 0 0 0 0 0 0 0 0 0 0 0 0 0 0 0 0 0 -0 0 -0 0 0 0 0 0 0 -0 -0 -0 0 -0 0 0 0 -0 -0 -0 0 0 0 0 0 0 0 -0 -0 -0 -0 -0 -0 -0
0 0 0 0 0 0 0 0 0 0 0 0 0 0 0 0 0 0 0 0 -0 -0 0 0 0 0 0 0 -0 -0 -0 -0 -0 -0 0 0 0 -0 -0 -0 -0 0 0 0 0 0 0 0 -0 -0 -0 -0 -0 -0
0 0 0 0 0 0 0 0 0 0 0 0 0 0 0 0 0 0 0 -0 -0 -0 -0 0 0 0 0 0 0 -0 -0 0 -0 -0 0 0 0 0 0 -0 -0 -0 0 0 0 0 0 0 0 -0 -0 -0 -0 -0
-0 0 0 0 0 0 0 0 0 0 0 0 0 0 0 0 -0 0 0 0 0 0 0 0 0 0 0 0 0 0 0 -0 -0 0 -0 -0 0 -0 -0 -0 -0 -0 -0 0 0 0 0 0 0 -0 -0 -0 -0 -0
0 0 0 0 0 0 0 0 0 0 0 0 0 0 0 0 0 0 0 0 0 0 0 -0 0 0 0 0 0 -0 0 0 0 -0 -0 0 0 0 -0 -0 -0 -0 0 0 0 0 0 0 -0 0 0 0 -0 0
0 0 0 0 0 0 0 0 0 0 0 0 0 0 0 0 0 0 0 0 0 0 0 0 0 0 0 0 -0 -0 0 -0 -0 0 0 0 0 0 0 0 0 0 -0 -0 0 0 0 0 -0 -0 0 0 0 0
0 0 0 0 0 0 0 0 0 0 0 0 0 0 0 0 0 0 0 0 0 0 0 0 0 0 0 0 0 0 0 0 0 0 0 0 0 0 0 0 0 0 -0 0 0 0 0 0 0 -0 -0 -0 -0 0
0 0 0 0 0 0 0 0 0 0 0 0 0 0 0 0 0 0 0 0 -0 0 0 0 0 0 0 0 0 0 0 0 0 0 0 0 0 0 0 0 0 -0 0 0 0 0 0 0 0 0 0 -0 -0 -0
0 0 0 0 0 0 -0 0 0 0 0 0 0 0 0 0 0 0 -0 0 0 0 0 0 0 0 0 0 0 0 0 0 0 0 0 0 0 0 0 0 0 0 0 0 0 0 0 0 0 0 0 0 0 0
-0 -0 -0 -0 0 0 0 0 0 0 0 0 0 0 0 0 0 0 0 0 0 0 0 0 0 0 0 0 0 0 -0 0 -0 0 0 0 0 0 0 0 0 0 0 0 0 0 0 0 0 0 0 0 0 0
0 0 0 0 0 0 0 0 0 0 0 0 0 0 0 0 0 0 0 0 0 0 0 0 0 0 0 0 0 0 0 0 0 0 0 0 0 0 0 0 0 0 0 0 0 0 0 0 0 0 0 0 0 0
0 0 0 0 0 0 0 0 0 0 0 0 0 0 0 0 0 0 0 0 0 0 0 0 0 0 0 0 0 0 0 0 0 0 0 0 0 0 0 0 0 0 0 0 0 0 0 0 0 0 0 0 0 0
0 0 0 0 0 0 0 0 0 0 0 0 0 0 0 0 0 0 0 0 0 0 0 0 0 0 0 0 0 0 0 0 0 0 0 0 0 0 0 0 0 0 0 0 0 0 0 0 0 0 0 0 0 0
0 0 0 0 0 0 0 0 0 0 0 0 0 0 0 0 0 0 0 0 0 0 0 0 0 0 0 0 0 0 0 0 0 0 0 0 0 0 0 0 0 0 0 0 0 0 0 0 0 0 0 0 0 0
Wind_Speed_500mb
43 47 46 44 35 41 47 45 43 34 28 25 24 22 15 14 12 9 5 5 7 4 14 10 6 5 9 9 5 4 7 6 7 7 5 3 3 3 3 3 6 10 10 7 7 8 12 6 5 4 8 10 18 19
42 44 46 44 31 37 40 43 39 31 23 22 21 17 14 13 10 9 4 6 6 7 9 13 12 7 4 6 4 5 7 4 4 7 2 4 2 5 1 3 3 5 10 8 13 10 10 9 14 24 20 17 21 29
40 44 46 37 31 35 42 39 37 29 21 20 17 16 15 11 11 12 10 8 9 8 16 18 15 13 23 18 13 4 4 5 8 10 6 4 2 4 2 7 4 6 2 5 3 6 10 22 15 17 19 26 29 29
36 41 47 34 30 32 37 37 34 22 23 18 15 12 16 15 10 11 11 8 8 7 4 5 8 3 11 18 19 25 10 18 20 12 8 4 1 5 5 6 5 10 6 5 9 12 21 24 18 15 25 26 31 38
35 39 42 35 25 30 35 33 26 21 25 16 14 15 13 15 14 12 16 10 7 5 4 17 20 7 10 16 20 33 18 19 11 7 5 4 4 2 3 3 7 13 12 9 10 19 10 22 32 37 27 36 35 37
33 36 41 40 21 25 30 27 21 21 18 18 16 11 14 17 19 17 1 10 9 10 4 6 14 13 11 23 30 30 22 12 8 8 4 4 1 1 3 6 17 24 20 14 6 29 38 34 26 24 30 23 8 17
31 35 40 39 28 19 24 24 20 16 15 14 17 17 19 18 17 10 6 15 16 9 1 8 11 9 12 29 24 20 19 10 7 8 6 6 2 8 4 7 12 17 20 37 29 20 16 19 22 15 9 8 15 20
37 39 37 33 29 21 16 22 17 18 15 17 18 19 22 15 12 8 8 2 4 2 3 3 5 6 5 6 9 8 9 5 6 6 7 5 4 8 9 24 37 31 28 15 9 7 13 20 7 7 7 13 19 25
40 33 33 30 27 19 15 18 20 19 17 21 23 16 10 6 3 6 2 3 3 1 1 2 4 2 3 8 11 6 5 3 4 2 4 5 4 10 13 22 24 17 10 8 9 14 15 5 9 7 13 18 24 33
34 27 29 31 24 21 16 18 19 20 19 18 12 8 5 1 5 3 3 1 5 1 2 3 4 3 9 5 4 5 1 4 1 5 11 4 7 42 43 40 32 17 8 11 11 6 4 3 1 11 17 20 26 34
25 25 25 27 20 15 12 19 21 18 13 8 8 7 6 2 6 5 5 4 1 3 6 9 15 4 2 3 4 5 4 4 2 4 4 5 5 8 22 14 12 10 3 3 8 4 2 3 7 13 15 20 29 34
25 23 22 23 19 14 11 15 12 14 14 14 9 8 2 2 3 2 2 2 5 5 8 9 11 19 2 5 7 5 3 3 6 13 5 4 1 4 12 23 17 18 18 14 6 6 6 10 13 16 21 23 23 35
25 24 24 20 20 13 10 10 10 10 15 7 4 5 3 1 2 4 3 4 5 7 11 12 4 6 5 4 8 4 6 7 2 5 4 2 7 5 27 31 28 20 13 10 11 11 13 14 13 23 26 15 21 38
27 25 26 21 19 13 10 8 9 7 5 5 5 5 3 5 7 5 5 3 8 8 15 24 9 4 3 4 4 6 7 1 4 7 2 2 13 11 30 23 20 20 17 18 14 16 19 9 18 32 22 13 25 45
22 24 21 16 15 6 6 9 6 3 4 4 5 5 7 12 16 21 26 13 9 9 11 11 7 2 2 4 2 1 4 6 7 0 3 9 27 35 27 18 21 21 22 22 19 27 25 12 24 33 18 24 25 47
22 19 7 9 14 4 3 5 7 2 3 3 6 7 14 14 8 15 2 4 4 12 14 6 3 1 3 3 5 7 5 2 3 4 13 34 36 33 27 27 22 21 23 27 21 24 27 15 23 28 23 27 28 44
18 13 7 7 8 4 4 2 1 1 4 5 10 18 31 25 14 10 6 6 0 5 2 1 2 3 4 2 5 3 4 1 5 23 37 34 33 32 29 27 22 20 17 15 21 27 31 22 23 29 32 31 30 39
25 12 8 4 7 7 9 5 3 4 7 10 12 14 7 19 15 16 11 7 5 1 2 2 5 3 4 1 3 2 12 3 16 39 34 32 28 28 26 25 25 24 20 16 15 24 32 32 31 34 35 36 37 36
26 18 15 14 11 11 3 4 5 5 10 14 20 23 18 16 17 11 7 11 5 5 3 3 3 3 1 1 8 6 18 6 36 34 31 28 25 25 26 21 21 21 22 19 16 22 32 37 34 34 36 44 49 46
25 24 21 17 25 14 4 4 5 6 8 7 15 15 13 8 6 9 11 6 0 1 1 3 5 4 7 16 16 9 8 25 38 35 32 30 26 23 24 19 20 22 20 18 15 16 24 34 39 38 40 45 50 52
18 23 19 25 25 11 7 5 7 9 10 11 17 13 5 7 10 14 11 8 2 4 4 7 11 12 16 9 6 11 12 34 36 33 34 35 28 25 29 25 23 21 19 17 20 17 18 28 32 36 40 46 47 50
15 18 26 29 5 7 6 9 8 8 8 11 13 6 6 3 5 8 14 5 1 8 9 15 21 14 18 9 22 22 29 32 29 20 32 30 28 33 39 29 26 24 20 15 16 21 20 19 22 31 38 40 45 47
17 14 8 6 5 8 7 8 7 6 5 5 7 3 4 4 4 20 6 5 10 21 21 18 12 6 10 19 21 8 37 36 33 25 27 26 25 23 42 30 25 25 23 21 13 17 23 23 19 24 31 36 40 45
9 3 3 5 9 5 6 6 6 7 6 4 4 5 2 4 12 3 5 6 10 23 25 24 10 10 13 9 2 7 37 38 35 33 25 23 28 28 42 35 30 23 18 22 18 15 16 22 25 27 28 33 38 43
2 4 3 5 8 5 6 6 6 3 4 4 3 3 1 6 1 2 4 7 16 24 27 26 16 9 2 5 14 24 28 35 34 33 29 28 33 47 42 36 33 24 19 18 21 19 18 17 21 28 31 32 36 40
4 5 6 4 4 4 4 4 2 3 3 3 4 9 6 3 3 4 4 13 17 24 30 28 25 2 8 5 7 22 31 31 28 26 28 41 44 43 42 40 37 32 24 12 13 16 16 15 15 19 25 29 32 35
4 6 8 7 6 6 4 6 8 4 2 3 4 4 5 2 4 4 10 12 29 31 26 20 18 17 12 13 7 11 22 31 27 28 36 37 29 22 20 32 31 23 20 17 14 10 10 13 13 12 13 16 20 24
7 6 3 6 3 2 1 3 3 5 4 10 4 7 4 8 4 13 13 28 28 25 18 14 13 7 16 18 11 8 19 35 35 27 20 37 35 31 27 26 25 23 22 19 16 13 9 7 6 10 10 6 7 11
8 7 5 4 1 5 6 4 3 3 8 5 3 4 5 6 14 17 17 20 20 17 11 8 10 13 19 17 17 26 29 36 20 17 25 29 37 36 35 30 25 24 26 26 21 14 12 11 8 5 3 4 4 3
6 6 5 4 3 2 2 3 7 6 9 11 11 12 11 8 17 24 16 16 20 16 11 10 10 10 30 16 22 35 43 30 20 11 18 23 34 38 37 30 25 23 25 26 21 21 17 17 16 14 7 1 1 10
5 7 5 5 4 5 12 18 13 12 13 12 10 10 12 8 6 19 23 18 19 18 11 5 10 9 15 33 40 38 36 29 19 7 5 14 24 27 25 25 26 27 24 21 21 17 16 16 14 9 7 6 11 13
7 6 7 4 5 15 20 16 8 6 5 5 5 5 7 3 6 15 26 22 14 16 20 19 14 10 6 20 26 34 35 30 26 22 21 17 23 25 27 27 27 26 26 23 18 18 16 12 8 5 4 4 5 5
9 7 7 7 6 9 12 6 6 5 6 4 4 5 5 3 2 18 22 22 17 13 14 16 19 19 8 2 14 24 25 23 24 26 36 32 26 23 21 22 21 22 21 22 22 16 11 6 4 4 2 0 2 4
Wind_Direction_500mb
338 335 337 337 332 339 339 333 337 335 339 342 338 349 342 328 323 331 318 294 333 250 286 300 346 34 15 34 113 144 88 7 43 68 112 214 108 286 356 157 181 162 171 200 190 209 254 318 25 179 219 291 278 282
334 337 339 335 333 340 342 342 334 333 342 339 340 348 352 352 355 341 354 359 302 291 278 276 272 250 284 53 110 75 116 105 146 91 108 92 56 58 79 269 51 178 185 181 182 215 216 251 237 273 266 272 267 264
339 339 338 337 341 344 342 340 338 330 338 334 338 350 350 340 346 347 339 330 330 308 285 277 273 244 244 232 197 142 159 117 95 84 123 137 72 93 179 247 304 327 95 230 125 270 253 280 277 252 263 265 282 282
339 335 338 334 340 340 340 340 337 334 338 334 335 349 357 358 333 338 349 342 352 328 330 303 1 305 176 188 208 201 159 139 121 103 78 102 136 168 228 247 192 218 342 219 262 288 290 277 220 270 279 266 283 285
336 332 332 331 335 339 339 345 338 334 336 342 339 342 347 346 346 329 317 313 289 301 304 296 324 76 207 200 189 183 186 149 124 96 94 180 194 122 307 337 247 197 207 174 234 244 225 264 271 273 280 288 297 303
333 328 332 333 323 338 343 345 344 349 339 324 326 352 341 334 342 342 34 36 14 229 329 321 343 19 147 175 165 177 173 125 105 94 92 130 134 179 249 246 257 244 278 207 258 296 293 279 283 294 294 303 286 306
331 328 330 334 332 333 339 341 345 338 343 350 340 333 324 319 309 313 314 337 354 172 327 313 339 26 133 136 134 138 145 138 116 135 165 153 241 200 233 254 243 254 275 289 297 289 259 279 293 309 312 288 301 306
331 335 333 334 335 323 321 340 330 322 329 332 334 327 325 316 307 301 303 238 30 110 41 357 290 336 127 121 104 117 100 128 90 125 140 170 217 221 254 246 274 291 297 299 215 216 318 311 270 307 284 301 308 313
329 337 339 340 332 330 313 319 333 329 321 329 328 325 337 5 18 7 80 91 311 300 294 220 288 314 37 48 104 81 102 90 131 150 221 198 191 229 234 262 282 301 230 257 262 268 283 264 311 295 307 320 323 325
336 336 344 342 337 333 335 326 332 339 323 327 344 348 9 320 64 30 80 183 210 232 234 275 297 269 158 110 61 92 79 146 170 217 157 220 257 259 267 264 263 301 354 342 321 134 205 263 234 324 330 330 332 331
330 328 337 333 327 326 333 345 345 348 359 358 1 355 350 204 357 354 1 352 339 282 226 236 228 251 232 138 115 193 159 155 240 216 201 228 258 271 326 290 209 154 45 63 128 127 12 342 337 334 339 339 342 345
321 322 331 333 329 321 314 337 348 352 4 355 342 338 227 358 5 338 282 260 221 250 213 187 216 193 39 114 109 150 120 130 251 154 228 248 314 326 52 98 100 120 131 104 45 33 49 21 10 4 356 348 351 348
314 310 321 319 324 308 307 329 334 318 351 352 350 359 15 298 320 244 246 211 244 221 195 172 92 132 128 121 71 87 197 224 228 222 241 311 157 65 113 115 113 103 88 56 75 52 22 11 7 5 357 338 333 346
305 306 314 320 314 292 288 299 320 340 349 340 328 301 215 228 246 238 246 298 314 301 162 134 80 89 99 79 140 135 229 231 263 224 190 201 220 148 125 120 110 88 75 80 59 45 16 9 17 4 10 1 340 355
294 300 311 321 328 294 279 276 279 25 334 304 305 273 235 233 242 276 259 276 279 146 132 84 86 107 4 123 199 134 231 236 220 289 159 225 152 137 126 117 109 100 89 67 76 39 30 40 19 16 31 10 359 4
290 292 297 323 340 254 267 199 182 315 270 267 251 281 285 295 336 349 105 188 120 120 87 103 124 127 189 184 208 217 241 234 123 226 152 146 140 135 131 128 106 109 98 78 72 41 37 47 20 27 34 28 15 16
275 261 259 316 329 202 177 121 105 286 262 258 259 262 269 283 286 268 293 346 252 119 13 139 197 220 111 214 235 235 269 199 183 143 145 141 138 137 134 129 110 111 112 93 71 49 48 64 41 48 45 37 32 22
260 262 253 271 291 215 201 209 256 255 260 260 271 288 275 281 271 276 254 239 125 177 235 258 295 277 286 292 321 324 200 86 144 147 146 141 140 138 139 135 120 102 106 104 106 62 57 62 56 56 54 53 51 39
252 241 246 237 204 191 237 227 221 266 257 272 272 284 272 280 290 273 196 181 230 223 220 276 278 237 321 220 285 311 205 190 156 150 149 140 132 133 143 143 144 127 97 93 112 77 64 63 64 60 61 58 56 51
239 232 229 204 196 195 209 220 225 261 269 278 273 275 296 283 216 184 179 184 345 358 239 228 233 238 227 298 224 240 235 180 162 158 155 152 154 146 147 149 153 134 128 99 111 86 71 65 61 63 64 63 60 58
222 231 201 174 194 201 220 226 234 245 278 271 285 301 291 188 182 186 194 195 232 232 262 272 291 322 338 360 125 185 165 184 186 186 169 155 160 161 151 138 142 153 137 124 104 110 84 71 65 64 66 66 66 63
125 136 156 185 145 199 254 226 249 275 265 270 294 253 269 268 224 188 157 178 332 351 341 328 313 307 338 14 354 213 199 187 202 193 176 171 166 174 173 158 151 145 134 129 96 91 89 84 69 66 67 72 69 69
150 152 116 151 179 199 258 214 246 233 242 256 292 260 253 228 180 151 81 84 50 14 17 11 1 323 274 319 340 162 181 178 191 173 175 180 176 183 181 165 164 151 138 137 120 92 86 84 84 74 71 74 74 72
118 144 218 216 207 227 228 231 237 257 254 260 230 275 192 135 156 85 79 69 14 18 25 16 338 252 205 324 153 200 185 181 190 187 193 208 203 186 177 171 160 143 126 117 118 114 100 86 82 80 72 73 74 73
304 227 219 255 215 235 222 210 225 236 263 238 277 284 136 97 108 81 70 16 7 5 7 7 17 125 153 31 145 141 165 192 194 189 185 182 175 161 167 165 161 159 153 137 132 120 117 107 88 80 75 71 72 73
264 220 202 274 204 183 298 291 295 303 287 232 5 359 34 82 63 59 40 348 354 344 348 347 354 349 161 52 83 174 168 169 179 177 165 177 172 165 170 173 175 179 177 176 156 142 129 120 107 94 86 75 68 67
275 270 238 241 262 241 282 267 252 273 326 17 10 22 340 191 94 46 346 321 333 329 328 325 321 320 218 206 77 134 165 179 182 170 167 170 175 189 194 183 177 173 172 179 192 193 163 145 139 130 109 97 80 66
257 278 272 325 314 27 223 330 33 26 23 345 357 38 40 15 33 337 322 324 330 331 329 319 301 231 192 193 202 173 186 186 179 160 191 185 183 185 185 186 185 185 187 188 187 183 190 178 141 135 138 142 113 80
245 239 242 314 191 65 55 32 79 59 356 345 50 76 98 86 14 354 350 345 341 333 339 342 228 228 205 193 195 193 186 169 165 199 213 190 191 187 188 189 179 174 183 184 178 179 181 189 180 164 126 78 102 168
236 200 142 96 96 77 330 91 116 99 65 83 104 112 113 126 38 22 11 10 11 6 4 23 57 149 185 187 181 177 178 187 189 197 196 195 187 177 170 173 176 185 194 197 196 183 181 186 186 188 200 256 323 178
179 171 123 111 129 150 146 131 119 115 100 82 89 124 140 154 20 11 18 23 17 11 2 353 51 97 154 174 183 188 196 209 197 163 154 156 183 181 175 175 181 187 192 194 187 181 177 179 187 207 228 196 167 178
178 163 155 126 141 165 160 166 167 145 131 104 118 113 129 126 18 7 11 15 12 18 25 18 4 30 88 164 188 195 196 194 190 192 205 193 163 163 168 171 171 174 174 177 184 188 193 212 245 244 210 186 183 201
136 136 127 113 137 176 203 200 139 107 100 93 89 103 102 83 93 13 0 355 360 1 14 23 25 19 346 257 153 167 182 188 194 202 206 194 194 181 179 179 179 182 189 190 185 190 206 224 199 170 158 124 329 327
Wind_Speed_850mb
43 47 46 44 35 41 47 45 43 34 28 25 24 22 15 14 12 9 5 5 7 4 14 10 6 5 9 9 5 4 7 6 7 7 5 3 3 3 3 3 6 10 10 7 7 8 12 6 5 4 8 10 18 19
42 44 46 44 31 37 40 43 39 31 23 22 21 17 14 13 10 9 4 6 6 7 9 13 12 7 4 6 4 5 7 4 4 7 2 4 2 5 1 3 3 5 10 8 13 10 10 9 14 24 20 17 21 29
40 44 46 37 31 35 42 39 37 29 21 20 17 16 15 11 11 12 10 8 9 8 16 18 15 13 23 18 13 4 4 5 8 10 6 4 2 4 2 7 4 6 2 5 3 6 10 22 15 17 19 26 29 29
36 41 47 34 30 32 37 37 34 22 23 18 15 12 16 15 10 11 11 8 8 7 4 5 8 3 11 18 19 25 10 18 20 12 8 4 1 5 5 6 5 10 6 5 9 12 21 24 18 15 25 26 31 38
35 39 42 35 25 30 35 33 26 21 25 16 14 15 13 15 14 12 16 10 7 5 4 17 20 7 10 16 20 33 18 19 11 7 5 4 4 2 3 3 7 13 12 9 10 19 10 22 32 37 27 36 35 37
33 36 41 40 21 25 30 27 21 21 18 18 16 11 14 17 19 17 1 10 9 10 4 6 14 13 11 23 30 30 22 12 8 8 4 4 1 1 3 6 17 24 20 14 6 29 38 34 26 24 30 23 8 17
31 35 40 39 28 19 24 24 20 16 15 14 17 17 19 18 17 10 6 15 16 9 1 8 11 9 12 29 24 20 19 10 7 8 6 6 2 8 4 7 12 17 20 37 29 20 16 19 22 15 9 8 15 20
37 39 37 33 29 21 16 22 17 18 15 17 18 19 22 15 12 8 8 2 4 2 3 3 5 6 5 6 9 8 9 5 6 6 7 5 4 8 9 24 37 31 28 15 9 7 13 20 7 7 7 13 19 25
40 33 33 30 27 19 15 18 20 19 17 21 23 16 10 6 3 6 2 3 3 1 1 2 4 2 3 8 11 6 5 3 4 2 4 5 4 10 13 22 24 17 10 8 9 14 15 5 9 7 13 18 24 33
34 27 29 31 24 21 16 18 19 20 19 18 12 8 5 1 5 3 3 1 5 1 2 3 4 3 9 5 4 5 1 4 1 5 11 4 7 42 43 40 32 17 8 11 11 6 4 3 1 11 17 20 26 34
25 25 25 27 20 15 12 19 21 18 13 8 8 7 6 2 6 5 5 4 1 3 6 9 15 4 2 3 4 5 4 4 2 4 4 5 5 8 22 14 12 10 3 3 8 4 2 3 7 13 15 20 29 34
25 23 22 23 19 14 11 15 12 14 14 14 9 8 2 2 3 2 2 2 5 5 8 9 11 19 2 5 7 5 3 3 6 13 5 4 1 4 12 23 17 18 18 14 6 6 6 10 13 16 21 23 23 35
25 24 24 20 20 13 10 10 10 10 15 7 4 5 3 1 2 4 3 4 5 7 11 12 4 6 5 4 8 4 6 7 2 5 4 2 7 5 27 31 28 20 13 10 11 11 13 14 13 23 26 15 21 38
27 25 26 21 19 13 10 8 9 7 5 5 5 5 3 5 7 5 5 3 8 8 15 24 9 4 3 4 4 6 7 1 4 7 2 2 13 11 30 23 20 20 17 18 14 16 19 9 18 32 22 13 25 45
22 24 21 16 15 6 6 9 6 3 4 4 5 5 7 12 16 21 26 13 9 9 11 11 7 2 2 4 2 1 4 6 7 0 3 9 27 35 27 18 21 21 22 22 19 27 25 12 24 33 18 24 25 47
22 19 7 9 14 4 3 5 7 2 3 3 6 7 14 14 8 15 2 4 4 12 14 6 3 1 3 3 5 7 5 2 3 4 13 34 36 33 27 27 22 21 23 27 21 24 27 15 23 28 23 27 28 44
18 13 7 7 8 4 4 2 1 1 4 5 10 18 31 25 14 10 6 6 0 5 2 1 2 3 4 2 5 3 4 1 5 23 37 34 33 32 29 27 22 20 17 15 21 27 31 22 23 29 32 31 30 39
25 12 8 4 7 7 9 5 3 4 7 10 12 14 7 19 15 16 11 7 5 1 2 2 5 3 4 1 3 2 12 3 16 39 34 32 28 28 26 25 25 24 20 16 15 24 32 32 31 34 35 36 37 36
26 18 15 14 11 11 3 4 5 5 10 14 20 23 18 16 17 11 7 11 5 5 3 3 3 3 1 1 8 6 18 6 36 34 31 28 25 25 26 21 21 21 22 19 16 22 32 37 34 34 36 44 49 46
25 24 21 17 25 14 4 4 5 6 8 7 15 15 13 8 6 9 11 6 0 1 1 3 5 4 7 16 16 9 8 25 38 35 32 30 26 23 24 19 20 22 20 18 15 16 24 34 39 38 40 45 50 52
18 23 19 25 25 11 7 5 7 9 10 11 17 13 5 7 10 14 11 8 2 4 4 7 11 12 16 9 6 11 12 34 36 33 34 35 28 25 29 25 23 21 19 17 20 17 18 28 32 36 40 46 47 50
15 18 26 29 5 7 6 9 8 8 8 11 13 6 6 3 5 8 14 5 1 8 9 15 21 14 18 9 22 22 29 32 29 20 32 30 28 33 39 29 26 24 20 15 16 21 20 19 22 31 38 40 45 47
17 14 8 6 5 8 7 8 7 6 5 5 7 3 4 4 4 20 6 5 10 21 21 18 12 6 10 19 21 8 37 36 33 25 27 26 25 23 42 30 25 25 23 21 13 17 23 23 19 24 31 36 40 45
9 3 3 5 9 5 6 6 6 7 6 4 4 5 2 4 12 3 5 6 10 23 25 24 10 10 13 9 2 7 37 38 35 33 25 23 28 28 42 35 30 23 18 22 18 15 16 22 25 27 28 33 38 43
2 4 3 5 8 5 6 6 6 3 4 4 3 3 1 6 1 2 4 7 16 24 27 26 16 9 2 5 14 24 28 35 34 33 29 28 33 47 42 36 33 24 19 18 21 19 18 17 21 28 31 32 36 40
4 5 6 4 4 4 4 4 2 3 3 3 4 9 6 3 3 4 4 13 17 24 30 28 25 2 8 5 7 22 31 31 28 26 28 41 44 43 42 40 37 32 24 12 13 16 16 15 15 19 25 29 32 35
4 6 8 7 6 6 4 6 8 4 2 3 4 4 5 2 4 4 10 12 29 31 26 20 18 17 12 13 7 11 22 31 27 28 36 37 29 22 20 32 31 23 20 17 14 10 10 13 13 12 13 16 20 24
7 6 3 6 3 2 1 3 3 5 4 10 4 7 4 8 4 13 13 28 28 25 18 14 13 7 16 18 11 8 19 35 35 27 20 37 35 31 27 26 25 23 22 19 16 13 9 7 6 10 10 6 7 11
8 7 5 4 1 5 6 4 3 3 8 5 3 4 5 6 14 17 17 20 20 17 11 8 10 13 19 17 17 26 29 36 20 17 25 29 37 36 35 30 25 24 26 26 21 14 12 11 8 5 3 4 4 3
6 6 5 4 3 2 2 3 7 6 9 11 11 12 11 8 17 24 16 16 20 16 11 10 10 10 30 16 22 35 43 30 20 11 18 23 34 38 37 30 25 23 25 26 21 21 17 17 16 14 7 1 1 10
5 7 5 5 4 5 12 18 13 12 13 12 10 10 12 8 6 19 23 18 19 18 11 5 10 9 15 33 40 38 36 29 19 7 5 14 24 27 25 25 26 27 24 21 21 17 16 16 14 9 7 6 11 13
7 6 7 4 5 15 20 16 8 6 5 5 5 5 7 3 6 15 26 22 14 16 20 19 14 10 6 20 26 34 35 30 26 22 21 17 23 25 27 27 27 26 26 23 18 18 16 12 8 5 4 4 5 5
9 7 7 7 6 9 12 6 6 5 6 4 4 5 5 3 2 18 22 22 17 13 14 16 19 19 8 2 14 24 25 23 24 26 36 32 26 23 21 22 21 22 21 22 22 16 11 6 4 4 2 0 2 4
Wind_Direction_850mb
338 335 337 337 332 339 339 333 337 335 339 342 338 349 342 328 323 331 318 294 333 250 286 300 346 34 15 34 113 144 88 7 43 68 112 214 108 286 356 157 181 162 171 200 190 209 254 318 25 179 219 291 278 282
334 337 339 335 333 340 342 342 334 333 342 339 340 348 352 352 355 341 354 359 302 291 278 276 272 250 284 53 110 75 116 105 146 91 108 92 56 58 79 269 51 178 185 181 182 215 216 251 237 273 266 272 267 264
339 339 338 337 341 344 342 340 338 330 338 334 338 350 350 340 346 347 339 330 330 308 285 277 273 244 244 232 197 142 159 117 95 84 123 137 72 93 179 247 304 327 95 230 125 270 253 280 277 252 263 265 282 282
339 335 338 334 340 340 340 340 337 334 338 334 335 349 357 358 333 338 349 342 352 328 330 303 1 305 176 188 208 201 159 139 121 103 78 102 136 168 228 247 192 218 342 219 262 288 290 277 220 270 279 266 283 285
336 332 332 331 335 339 339 345 338 334 336 342 339 342 347 346 346 329 317 313 289 301 304 296 324 76 207 200 189 183 186 149 124 96 94 180 194 122 307 337 247 197 207 174 234 244 225 264 271 273 280 288 297 303
333 328 332 333 323 338 343 345 344 349 339 324 326 352 341 334 342 342 34 36 14 229 329 321 343 19 147 175 165 177 173 125 105 94 92 130 134 179 249 246 257 244 278 207 258 296 293 279 283 294 294 303 286 306
331 328 330 334 332 333 339 341 345 338 343 350 340 333 324 319 309 313 314 337 354 172 327 313 339 26 133 136 134 138 145 138 116 135 165 153 241 200 233 254 243 254 275 289 297 289 259 279 293 309 312 288 301 306
331 335 333 334 335 323 321 340 330 322 329 332 334 327 325 316 307 301 303 238 30 110 41 357 290 336 127 121 104 117 100 128 90 125 140 170 217 221 254 246 274 291 297 299 215 216 318 311 270 307 284 301 308 313
329 337 339 340 332 330 313 319 333 329 321 329 328 325 337 5 18 7 80 91 311 300 294 220 288 314 37 48 104 81 102 90 131 150 221 198 191 229 234 262 282 301 230 257 262 268 283 264 311 295 307 320 323 325
336 336 344 342 337 333 335 326 332 339 323 327 344 348 9 320 64 30 80 183 210 232 234 275 297 269 158 110 61 92 79 146 170 217 157 220 257 259 267 264 263 301 354 342 321 134 205 263 234 324 330 330 332 331
330 328 337 333 327 326 333 345 345 348 359 358 1 355 350 204 357 354 1 352 339 282 226 236 228 251 232 138 115 193 159 155 240 216 201 228 258 271 326 290 209 154 45 63 128 127 12 342 337 334 339 339 342 345
321 322 331 333 329 321 314 337 348 352 4 355 342 338 227 358 5 338 282 260 221 250 213 187 216 193 39 114 109 150 120 130 251 154 228 248 314 326 52 98 100 120 131 104 45 33 49 21 10 4 356 348 351 348
314 310 321 319 324 308 307 329 334 318 351 352 350 359 15 298 320 244 246 211 244 221 195 172 92 132 128 121 71 87 197 224 228 222 241 311 157 65 113 115 113 103 88 56 75 52 22 11 7 5 357 338 333 346
305 306 314 320 314 292 288 299 320 340 349 340 328 301 215 228 246 238 246 298 314 301 162 134 80 89 99 79 140 135 229 231 263 224 190 201 220 148 125 120 110 88 75 80 59 45 16 9 17 4 10 1 340 355
294 300 311 321 328 294 279 276 279 25 334 304 305 273 235 233 242 276 259 276 279 146 132 84 86 107 4 123 199 134 231 236 220 289 159 225 152 137 126 117 109 100 89 67 76 39 30 40 19 16 31 10 359 4
290 292 297 323 340 254 267 199 182 315 270 267 251 281 285 295 336 349 105 188 120 120 87 103 124 127 189 184 208 217 241 234 123 226 152 146 140 135 131 128 106 109 98 78 72 41 37 47 20 27 34 28 15 16
275 261 259 316 329 202 177 121 105 286 262 258 259 262 269 283 286 268 293 346 252 119 13 139 197 220 111 214 235 235 269 199 183 143 145 141 138 137 134 129 110 111 112 93 71 49 48 64 41 48 45 37 32 22
260 262 253 271 291 215 201 209 256 255 260 260 271 288 275 281 271 276 254 239 125 177 235 258 295 277 286 292 321 324 200 86 144 147 146 141 140 138 139 135 120 102 106 104 106 62 57 62 56 56 54 53 51 39
252 241 246 237 204 191 237 227 221 266 257 272 272 284 272 280 290 273 196 181 230 223 220 276 278 237 321 220 285 311 205 190 156 150 149 140 132 133 143 143 144 127 97 93 112 77 64 63 64 60 61 58 56 51
239 232 229 204 196 195 209 220 225 261 269 278 273 275 296 283 216 184 179 184 345 358 239 228 233 238 227 298 224 240 235 180 162 158 155 152 154 146 147 149 153 134 128 99 111 86 71 65 61 63 64 63 60 58
222 231 201 174 194 201 220 226 234 245 278 271 285 301 291 188 182 186 194 195 232 232 262 272 291 322 338 360 125 185 165 184 186 186 169 155 160 161 151 138 142 153 137 124 104 110 84 71 65 64 66 66 66 63
125 136 156 185 145 199 254 226 249 275 265 270 294 253 269 268 224 188 157 178 332 351 341 328 313 307 338 14 354 213 199 187 202 193 176 171 166 174 173 158 151 145 134 129 96 91 89 84 69 66 67 72 69 69
150 152 116 151 179 199 258 214 246 233 242 256 292 260 253 228 180 151 81 84 50 14 17 11 1 323 274 319 340 162 181 178 191 173 175 180 176 183 181 165 164 151 138 137 120 92 86 84 84 74 71 74 74 72
118 144 218 216 207 227 228 231 237 257 254 260 230 275 192 135 156 85 79 69 14 18 25 16 338 252 205 324 153 200 185 181 190 187 193 208 203 186 177 171 160 143 126 117 118 114 100 86 82 80 72 73 74 73
304 227 219 255 215 235 222 210 225 236 263 238 277 284 136 97 108 81 70 16 7 5 7 7 17 125 153 31 145 141 165 192 194 189 185 182 175 161 167 165 161 159 153 137 132 120 117 107 88 80 75 71 72 73
264 220 202 274 204 183 298 291 295 303 287 232 5 359 34 82 63 59 40 348 354 344 348 347 354 349 161 52 83 174 168 169 179 177 165 177 172 165 170 173 175 179 177 176 156 142 129 120 107 94 86 75 68 67
275 270 238 241 262 241 282 267 252 273 326 17 10 22 340 191 94 46 346 321 333 329 328 325 321 320 218 206 77 134 165 179 182 170 167 170 175 189 194 183 177 173 172 179 192 193 163 145 139 130 109 97 80 66
257 278 272 325 314 27 223 330 33 26 23 345 357 38 40 15 33 337 322 324 330 331 329 319 301 231 192 193 202 173 186 186 179 160 191 185 183 185 185 186 185 185 187 188 187 183 190 178 141 135 138 142 113 80
245 239 242 314 191 65 55 32 79 59 356 345 50 76 98 86 14 354 350 345 341 333 339 342 228 228 205 193 195 193 186 169 165 199 213 190 191 187 188 189 179 174 183 184 178 179 181 189 180 164 126 78 102 168
236 200 142 96 96 77 330 91 116 99 65 83 104 112 113 126 38 22 11 10 11 6 4 23 57 149 185 187 181 177 178 187 189 197 196 195 187 177 170 173 176 185 194 197 196 183 181 186 186 188 200 256 323 178
179 171 123 111 129 150 146 131 119 115 100 82 89 124 140 154 20 11 18 23 17 11 2 353 51 97 154 174 183 188 196 209 197 163 154 156 183 181 175 175 181 187 192 194 187 181 177 179 187 207 228 196 167 178
178 163 155 126 141 165 160 166 167 145 131 104 118 113 129 126 18 7 11 15 12 18 25 18 4 30 88 164 188 195 196 194 190 192 205 193 163 163 168 171 171 174 174 177 184 188 193 212 245 244 210 186 183 201
136 136 127 113 137 176 203 200 139 107 100 93 89 103 102 83 93 13 0 355 360 1 14 23 25 19 346 257 153 167 182 188 194 202 206 194 194 181 179 179 179 182 189 190 185 190 206 224 199 170 158 124 329 327